Showing default

COSMOS 2255, 22690

Orbit data source: Space-Track

COSMOS 2255, 22690 is a payload satellite owned by VKS (CIS) in LEO that was launched on Thu, 24 Jun 1993 UTC via a TSIKLON-3 launch vehicle from the Plesetsk Missile And Space Complex (PKMTR). Payload-class satellites include a variety of spacecraft equipped with specific instruments for various scientific and technological missions. These include communications satellites like Starlink; space stations such as the ISS; scientific satellites like the Hubble; Earth observation satellites from companies like Planet Labs, Umbra, and HawkEye 360; GPS; miniature CubeSats for education and research; and military/defense satellites.

Loading next visibility...
Identifier
22690, 1993-038D
Orbit
LEO
Country
Flag of CISCIS
Related business
Manufacturer
NPO PM
Mission
Defense Communications
Bus & Motor
STRELA-3, Unknown motor
Mass
225 kg wet, 225 kg dry
Launch date (UTC)
1993-06-24 (32 years ago)
Launch vehicle
TSIKLON-3
Launch site
Plesetsk Missile And Space Complex (PKMTR)
Object type
Payload
Rocket body
Debris
Shape & HBR
Cyl, 0.8 m
Radar Cross Section
1.257 m², Medium (>0.1 m² and < 1m²)

Expand to show TLE details & history
Last TLE update: 16 hours ago

TLE from 16 hours ago
0 COSMOS 2255
1 22690U 93038D   25260.89586142  .00000017  00000-0  37230-4 0  9997
2 22690  82.5844  43.5536 0005167 235.0696 246.9756 12.63320112486848
Epoch: 2025-09-17T21:30Z
TLE epoch observation values (Epoch: 2025-09-17T21:30:02.426Z)
Latitude
57.34074°
Longitude
-107.67869°
Altitude
1,420.421 km
Speed
7.155 km/s
True Right ascension
14h 07m 35s
True Declination
57° 11' 51"
Sunlit
Object was in daylight at epoch
Visualization orbit readout
Latitude
Unknown
Longitude
Unknown
Altitude
Unknown
Speed
Unknown
Apparent Right ascension
Unknown
Apparent Declination
Unknown
Sunlit
N/A
Visualization observer readout
Local Sidereal Time
06:42:01
Azimuth
Unknown
Elevation
Unknown
Doppler factor
Unknown
Orbital elements
Apogee altitude
1,410.612 km
Perigee altitude
1,402.567 km
Semi-major axis
7,784.727 km
Eccentricity
0.00052
Inclination
82.5844°
RAAN
43.5536°
Arg. of periapsis
235.0696°
True anomaly
246.92112°
Mean anomaly
246.9756°
Eccentric anomaly
246.94836°
Mean motion
3.15993 °/min
Orbital period
113.93 mins
BSTAR
0.00003723
Loading maneuver chart data...
Computing Atmospheric mass density...
Loading historical data...
Loading historical data...
Loading historical data...
Loading historical data...
Loading historical data...
Loading historical data...
Loading historical data...

Documentation

Showing up to 5 results
|